This demonstration page uses our WeatherBlox Daily Observations layout. Learn more.

Left ArrowRight Arrow

41.12389, -100.76542

Hourly Observations for February 24, 2017

Temp ( °F °C ) Dew Point ( °F °C ) Humidity (%) Winds ( mph kmh ) Pressure ( in mb ) Visibility ( mi km ) Precip ( " mm )
12:01 am 00:01 Cloudy with Light Snow 24 -4.4 20 -6.7 84 84 N 18 30 29.97 1015 1 2 0.00 0.03
12:16 am 00:16 Windy with Snow Likely 24 -4.4 20 -6.7 84 84 N 21 33 29.97 1015 2 2 0.00 0.03
12:36 am 00:36 Windy with Snow Likely 25 -4 19 -7 80 80 N 20 31 29.94 1014 2 3 0.00 0.00
12:43 am 00:43 Cloudy with Light Snow 24 -4.4 19 -7.2 81 81 N 17 28 29.97 1015 2 2 0.00 0.03
12:53 am 00:53 Windy with Snow Likely 24 -4.4 19 -7.2 81 81 N 22 35 29.87 1012 2 2 0.00 0.03
1:53 am 01:53 Windy with Snow Likely 24 -4.4 19 -7.2 81 81 N 21 33 29.88 1012 2 3 0.00 0.03
2:21 am 02:21 Mostly Cloudy with Light Snow 25 -4 19 -7 80 80 N 17 28 29.94 1014 1 2 0.00 0.00
2:33 am 02:33 Mostly Cloudy with Light Snow 25 -4 19 -7 80 80 N 18 30 29.94 1014 1 2 0.00 0.00
2:40 am 02:40 Mostly Cloudy with Light Snow 23 -5 19 -7 86 86 N 20 31 29.97 1015 1 1 0.00 0.00
2:49 am 02:49 Mostly Cloudy with Light Snow 23 -5 19 -7 86 86 N 21 33 29.97 1015 1 1 0.01 0.25
2:53 am 02:53 Mostly Cloudy with Light Snow 23 -5 19 -7.2 85 85 N 22 35 29.89 1012 1 1 0.01 0.25
3:18 am 03:18 Mostly Cloudy with Light Snow 23 -5 19 -7 86 86 N 21 33 30.00 1016 1 1 0.00 0.00
3:30 am 03:30 Mostly Cloudy with Light Snow 23 -5 19 -7 86 86 N 20 31 30.00 1016 1 2 0.00 0.00
3:43 am 03:43 Windy with Snow Likely 23 -5 19 -7.2 85 85 N 22 35 30.00 1016 2 2 0.01 0.25
3:53 am 03:53 Windy with Snow Likely 23 -5 19 -7.2 85 85 N 23 37 29.91 1013 1 2 0.01 0.25
4:30 am 04:30 Cloudy with Haze 24 -4.4 19 -7.2 81 81 N 20 31 30.00 1016 2 2 0.00 0.03
4:42 am 04:42 Mostly Cloudy with Mist and Fog 23 -5 19 -7 86 86 N 16 26 30.00 1016 1 2 0.00 0.00
4:53 am 04:53 Cloudy with Mist and Fog 24 -4.4 20 -6.7 84 84 N 18 30 29.92 1013 1 2 0.01 0.25
5:11 am 05:11 Cloudy with Haze 25 -4 19 -7 80 80 N 23 37 30.00 1016 2 2 0.00 0.00
5:29 am 05:29 Cloudy with Haze 24 -4.4 19 -7.2 81 81 N 18 30 30.00 1016 3 5 0.00 0.00
5:53 am 05:53 Cloudy with Haze 24 -4.4 19 -7.2 81 81 N 16 26 29.95 1014 4 6 0.00 0.00
6:35 am 06:35 Cloudy with Haze 24 -4.4 19 -7.2 81 81 N 16 26 30.03 1017 3 4 0.00 0.00
6:53 am 06:53 Cloudy with Haze 24 -4.4 19 -7.2 81 81 N 20 31 29.97 1015 3 5 0.00 0.00
7:53 am 07:53 Cloudy with Light Snow 24 -4.4 18 -7.8 77 77 N 18 30 30.01 1016 4 6 0.00 0.03
8:53 am 08:53 Windy with Snow Likely 24 -4.4 18 -7.8 77 77 N 21 33 30.05 1018 3 5 0.00 0.03
9:53 am 09:53 Cloudy 24 -4.4 17 -8.3 75 75 N 20 31 30.07 1018 10 16 0.00 0.03
10:42 am 10:42 Cloudy 23 -5 16 -9 74 74 N 23 37 30.18 1022 10 16 0.00 0.00
10:53 am 10:53 Cloudy 23 -5 15 -9.4 72 72 NNW 21 33 30.11 1020 10 16 0.00 0.00
11:53 am 11:53 Cloudy 23 -5 13 -10.6 65 65 N 18 30 30.12 1020 10 16 0.00 0.00
12:53 pm 12:53 Cloudy 23 -5 12 -11.1 63 63 N 16 26 30.13 1020 10 16 0.00 0.00
1:53 pm 13:53 Cloudy 24 -4.4 11 -11.7 57 57 N 17 28 30.12 1020 10 16 0.00 0.00
2:53 pm 14:53 Partly Cloudy 24 -4.4 12 -11.1 60 60 NNW 15 24 30.13 1020 10 16 0.00 0.00
3:53 pm 15:53 Partly Cloudy 24 -4.4 12 -11.1 60 60 NNW 17 28 30.15 1021 10 16 0.00 0.00
4:53 pm 16:53 Mostly Cloudy 24 -4.4 12 -11.1 60 60 NNW 15 24 30.16 1022 10 16 0.00 0.00
5:53 pm 17:53 Partly Cloudy 23 -5 11 -11.7 60 60 NNW 10 17 30.18 1022 10 16 0.00 0.00
6:53 pm 18:53 Clear 20 -6.7 8 -13.3 60 60 NNW 9 15 30.21 1023 10 16 0.00 0.00
7:53 pm 19:53 Clear 15 -9.4 7 -13.9 70 70 NW 7 11 30.23 1024 10 16 0.00 0.00
8:53 pm 20:53 Clear 12 -11.1 6 -14.4 77 77 NW 6 9 30.25 1024 10 16 0.00 0.00
9:53 pm 21:53 Clear 15 -9.4 8 -13.3 74 74 WNW 9 15 30.25 1024 10 16 0.00 0.00
10:53 pm 22:53 Clear 12 -11.1 7 -13.9 80 80 NW 8 13 30.27 1025 10 16 0.00 0.00
11:53 pm 23:53 Clear 12 -11.1 7 -13.9 80 80 NW 8 13 30.26 1025 10 16 0.00 0.00

Powered by AerisWeather